When you browse on this site, cookies collect data to enhance your experience and personalize the content and advertising you see.
Visit our Privacy Policy to learn more. By continuing to use the site, you agree to this use of cookies and data.
  • In Belgien
  • Länderverzeichnis
  • Für 7 Tage
  • Wassertemperatur
  • Satellitenkarten
  • Wetterkarte
  • Widgets
  • user-avatar
    Anmelden

    Stündliche Wetter Zareche

    Heute, 27 Mai, Montag

    Zeit Temperatur Niederschläge Wind Luftdruck Luftfeuchtigkeit
    00:00 +10°C° 0 mm 2 m/S 741 mmHg 84%
    01:00 +9°C° 0 mm 3 m/S 741 mmHg 85%
    02:00 +9°C° 0 mm 3 m/S 741 mmHg 85%
    03:00 +10°C° 0 mm 3 m/S 742 mmHg 83%
    04:00 +10°C° 0 mm 3 m/S 742 mmHg 81%
    05:00 +11°C° 0 mm 4 m/S 742 mmHg 80%
    06:00 +12°C° 0 mm 4 m/S 742 mmHg 73%
    07:00 +13°C° 0 mm 4 m/S 743 mmHg 67%
    08:00 +14°C° 0 mm 5 m/S 743 mmHg 61%
    09:00 +15°C° 0.1 mm 5 m/S 743 mmHg 61%
    10:00 +15°C° 0.1 mm 5 m/S 744 mmHg 61%
    11:00 +16°C° 0.1 mm 6 m/S 744 mmHg 60%
    12:00 +15°C° 0.1 mm 5 m/S 744 mmHg 63%
    13:00 +15°C° 0.1 mm 5 m/S 744 mmHg 66%
    14:00 +15°C° 0.1 mm 4 m/S 744 mmHg 68%
    15:00 +16°C° 0 mm 5 m/S 744 mmHg 67%
    16:00 +17°C° 0 mm 5 m/S 745 mmHg 66%
    17:00 +17°C° 0 mm 5 m/S 745 mmHg 65%
    18:00 +17°C° 0 mm 4 m/S 745 mmHg 72%
    19:00 +16°C° 0 mm 3 m/S 745 mmHg 80%
    20:00 +15°C° 0 mm 2 m/S 745 mmHg 87%
    21:00 +14°C° 0.1 mm 3 m/S 745 mmHg 88%
    22:00 +15°C° 0.1 mm 4 m/S 745 mmHg 89%
    23:00 +15°C° 0.1 mm 4 m/S 745 mmHg 90%

    Morgen, 28 Mai, Dienstag

    Zeit Temperatur Niederschläge Wind Luftdruck Luftfeuchtigkeit
    00:00 +15°C° 0 mm 4 m/S 745 mmHg 91%
    01:00 +14°C° 0 mm 4 m/S 745 mmHg 92%
    02:00 +14°C° 0 mm 3 m/S 746 mmHg 93%
    03:00 +14°C° 0 mm 3 m/S 746 mmHg 92%
    04:00 +14°C° 0 mm 3 m/S 746 mmHg 92%
    05:00 +14°C° 0 mm 3 m/S 747 mmHg 91%
    06:00 +17°C° 0 mm 3 m/S 747 mmHg 83%
    07:00 +19°C° 0 mm 3 m/S 747 mmHg 76%
    08:00 +21°C° 0 mm 3 m/S 748 mmHg 69%
    09:00 +22°C° 0 mm 3 m/S 748 mmHg 63%
    10:00 +24°C° 0 mm 3 m/S 748 mmHg 58%
    11:00 +26°C° 0 mm 4 m/S 748 mmHg 52%
    12:00 +26°C° 0 mm 4 m/S 748 mmHg 50%
    13:00 +27°C° 0 mm 4 m/S 748 mmHg 48%
    14:00 +28°C° 0 mm 4 m/S 748 mmHg 46%
    15:00 +27°C° 0 mm 3 m/S 748 mmHg 49%
    16:00 +27°C° 0 mm 3 m/S 748 mmHg 52%
    17:00 +27°C° 0 mm 3 m/S 748 mmHg 56%
    18:00 +25°C° 0.1 mm 3 m/S 748 mmHg 64%
    19:00 +22°C° 0.1 mm 3 m/S 748 mmHg 73%
    20:00 +20°C° 0.1 mm 2 m/S 748 mmHg 81%
    21:00 +20°C° 0 mm 3 m/S 748 mmHg 83%
    22:00 +19°C° 0 mm 3 m/S 748 mmHg 84%
    23:00 +19°C° 0 mm 3 m/S 748 mmHg 85%

    übermorgen, 29 Mai, Mittwoch

    Zeit Temperatur Niederschläge Wind Luftdruck Luftfeuchtigkeit
    00:00 +19°C° 0 mm 3 m/S 748 mmHg 84%
    01:00 +18°C° 0 mm 4 m/S 749 mmHg 84%
    02:00 +18°C° 0 mm 4 m/S 749 mmHg 83%
    03:00 +19°C° 0 mm 4 m/S 749 mmHg 82%
    04:00 +19°C° 0 mm 4 m/S 749 mmHg 82%
    05:00 +19°C° 0 mm 4 m/S 749 mmHg 82%
    06:00 +21°C° 0 mm 4 m/S 749 mmHg 75%
    07:00 +23°C° 0 mm 5 m/S 749 mmHg 68%
    08:00 +25°C° 0 mm 5 m/S 749 mmHg 61%
    09:00 +27°C° 0 mm 5 m/S 749 mmHg 56%
    10:00 +28°C° 0 mm 6 m/S 749 mmHg 50%
    11:00 +29°C° 0 mm 6 m/S 749 mmHg 45%
    12:00 +29°C° 0 mm 6 m/S 749 mmHg 44%
    13:00 +29°C° 0 mm 6 m/S 749 mmHg 44%
    14:00 +30°C° 0 mm 6 m/S 749 mmHg 43%
    15:00 +29°C° 0 mm 5 m/S 749 mmHg 46%
    16:00 +29°C° 0 mm 5 m/S 749 mmHg 49%
    17:00 +28°C° 0 mm 4 m/S 749 mmHg 52%
    18:00 +26°C° 0 mm 4 m/S 749 mmHg 58%
    19:00 +25°C° 0 mm 4 m/S 749 mmHg 65%
    20:00 +22°C° 0 mm 3 m/S 749 mmHg 71%
    21:00 +21°C° 0 mm 3 m/S 749 mmHg 72%
    22:00 +21°C° 0 mm 3 m/S 750 mmHg 74%
    23:00 +20°C° 0 mm 3 m/S 750 mmHg 75%

    30 Mai, Donnerstag

    Zeit Temperatur Niederschläge Wind Luftdruck Luftfeuchtigkeit
    00:00 +20°C° 0 mm 3 m/S 750 mmHg 78%
    01:00 +19°C° 0 mm 3 m/S 750 mmHg 81%
    02:00 +19°C° 0 mm 3 m/S 750 mmHg 85%
    03:00 +19°C° 0.1 mm 3 m/S 750 mmHg 86%
    04:00 +19°C° 0.1 mm 3 m/S 750 mmHg 86%
    05:00 +20°C° 0.1 mm 3 m/S 750 mmHg 87%
    06:00 +21°C° 0 mm 3 m/S 750 mmHg 79%
    07:00 +22°C° 0 mm 4 m/S 750 mmHg 72%
    08:00 +23°C° 0 mm 4 m/S 750 mmHg 64%
    09:00 +25°C° 0.1 mm 4 m/S 750 mmHg 61%
    10:00 +27°C° 0.1 mm 4 m/S 750 mmHg 57%
    11:00 +28°C° 0.1 mm 4 m/S 750 mmHg 54%
    12:00 +28°C° 1.5 mm 4 m/S 750 mmHg 58%
    13:00 +27°C° 1.5 mm 4 m/S 750 mmHg 63%
    14:00 +27°C° 1.5 mm 3 m/S 750 mmHg 67%
    15:00 +26°C° 1.2 mm 3 m/S 750 mmHg 70%
    16:00 +26°C° 1.2 mm 3 m/S 750 mmHg 73%
    17:00 +25°C° 1.2 mm 2 m/S 750 mmHg 76%
    18:00 +24°C° 0.4 mm 2 m/S 750 mmHg 80%
    19:00 +22°C° 0.4 mm 1 m/S 751 mmHg 84%
    20:00 +21°C° 0.4 mm 1 m/S 751 mmHg 88%
    21:00 +20°C° 0 mm 1 m/S 751 mmHg 90%
    22:00 +20°C° 0 mm 1 m/S 751 mmHg 91%
    23:00 +19°C° 0 mm 1 m/S 751 mmHg 93%

    31 Mai, Freitag

    Zeit Temperatur Niederschläge Wind Luftdruck Luftfeuchtigkeit
    00:00 +19°C° 0 mm 1 m/S 751 mmHg 94%
    01:00 +18°C° 0 mm 1 m/S 751 mmHg 95%
    02:00 +18°C° 0 mm 1 m/S 751 mmHg 96%
    03:00 +18°C° 0.3 mm 1 m/S 751 mmHg 96%
    04:00 +17°C° 0.3 mm 0 m/S 751 mmHg 95%
    05:00 +17°C° 0.3 mm 0 m/S 751 mmHg 95%
    06:00 +18°C° 0.3 mm 0 m/S 751 mmHg 91%
    07:00 +20°C° 0.3 mm 0 m/S 751 mmHg 87%
    08:00 +21°C° 0.3 mm 0 m/S 751 mmHg 83%
    09:00 +24°C° 0.3 mm 1 m/S 751 mmHg 76%
    10:00 +26°C° 0.3 mm 1 m/S 751 mmHg 69%
    11:00 +27°C° 0.3 mm 1 m/S 751 mmHg 63%
    12:00 +28°C° 0 mm 1 m/S 751 mmHg 58%
    13:00 +28°C° 0 mm 2 m/S 751 mmHg 54%
    14:00 +29°C° 0 mm 2 m/S 751 mmHg 49%
    15:00 +28°C° 1.2 mm 2 m/S 751 mmHg 60%
    16:00 +26°C° 1.2 mm 2 m/S 750 mmHg 71%
    17:00 +25°C° 1.2 mm 1 m/S 750 mmHg 82%
    18:00 +24°C° 0 mm 1 m/S 750 mmHg 84%
    19:00 +23°C° 0 mm 1 m/S 750 mmHg 86%
    20:00 +20°C° 0 mm 0 m/S 750 mmHg 88%
    21:00 +21°C° 0 mm 1 m/S 750 mmHg 90%
    22:00 +21°C° 0 mm 1 m/S 750 mmHg 92%
    23:00 +20°C° 0 mm 1 m/S 750 mmHg 95%

    1 Juni, Samstag

    Zeit Temperatur Niederschläge Wind Luftdruck Luftfeuchtigkeit
    00:00 +20°C° 0.7 mm 1 m/S 750 mmHg 95%
    01:00 +19°C° 0.7 mm 2 m/S 750 mmHg 96%
    02:00 +19°C° 0.7 mm 2 m/S 750 mmHg 96%
    03:00 +20°C° 0.6 mm 1 m/S 750 mmHg 96%
    04:00 +20°C° 0.6 mm 1 m/S 750 mmHg 96%
    05:00 +20°C° 0.6 mm 1 m/S 750 mmHg 95%
    06:00 +22°C° 0.1 mm 1 m/S 750 mmHg 90%
    07:00 +23°C° 0.1 mm 2 m/S 750 mmHg 86%
    08:00 +25°C° 0.1 mm 2 m/S 750 mmHg 81%
    09:00 +26°C° 0.3 mm 2 m/S 750 mmHg 73%
    10:00 +27°C° 0.3 mm 3 m/S 750 mmHg 66%
    11:00 +28°C° 0.3 mm 4 m/S 750 mmHg 58%
    12:00 +28°C° 0.1 mm 4 m/S 749 mmHg 57%
    13:00 +29°C° 0.1 mm 4 m/S 749 mmHg 56%
    14:00 +29°C° 0.1 mm 4 m/S 749 mmHg 54%
    15:00 +29°C° 0.1 mm 4 m/S 749 mmHg 58%
    16:00 +28°C° 0.1 mm 3 m/S 748 mmHg 63%
    17:00 +27°C° 0.1 mm 3 m/S 748 mmHg 67%
    18:00 +26°C° 0.9 mm 3 m/S 748 mmHg 74%
    19:00 +24°C° 0.9 mm 3 m/S 748 mmHg 82%
    20:00 +21°C° 0.9 mm 3 m/S 749 mmHg 89%
    21:00 +20°C° 0.3 mm 2 m/S 749 mmHg 91%
    22:00 +20°C° 0.3 mm 1 m/S 749 mmHg 93%
    23:00 +20°C° 0.3 mm 1 m/S 749 mmHg 95%
    Mehr zeigen